This is the latest recevied weather packets stored in our database for station/object EA1IOK-13. If no packets are shown the sender has not sent any weather packets the latest 10 day(s).
| Time | Temp. | Humidity | Pressure | Rain* | Wind** | Luminosity | Snow |
|---|---|---|---|---|---|---|---|
| 1777802588 | 13.89° C | 86% | 1012.7 hPa | 0 mm | - | - | - |
| 1777801688 | 13.89° C | 88% | 1012.7 hPa | 0 mm | - | - | - |
| 1777800789 | 13.89° C | 93% | 1012.8 hPa | 0 mm | - | - | - |
| 1777799889 | 13.33° C | 96% | 1012.9 hPa | 0 mm | - | - | - |
| 1777798988 | 12.22° C | 97% | 1013 hPa | 0 mm | - | - | - |
| 1777798088 | 11.67° C | 99% | 1013.1 hPa | 0 mm | - | - | - |
| 1777797188 | 11.11° C | 99% | 1013.2 hPa | 0 mm | - | - | - |
| 1777796289 | 11.11° C | 99% | 1013.2 hPa | 0 mm | - | - | - |
| 1777795389 | 11.11° C | 99% | 1013.2 hPa | 0 mm | - | - | - |
| 1777794488 | 11.11° C | 99% | 1013.2 hPa | 0 mm | - | - | - |
| 1777793587 | 10.56° C | 99% | 1013.1 hPa | 0 mm | - | - | - |
| 1777792689 | 11.11° C | 99% | 1013 hPa | 0 mm | - | - | - |
| 1777789989 | 10.56° C | 99% | 1012.9 hPa | 0 mm | - | - | - |
| 1777789088 | 10.56° C | 99% | 1012.8 hPa | 0 mm | - | - | - |
| 1777788189 | 10.56° C | 99% | 1012.7 hPa | 0 mm | - | - | - |
| 1777785488 | 10.56° C | 99% | 1012.7 hPa | 0 mm | - | - | - |
| 1777784587 | 10.56° C | 99% | 1012.7 hPa | 0 mm | - | - | - |
| 1777783688 | 10.56° C | 98% | 1012.6 hPa | 0 mm | - | - | - |
| 1777782788 | 10.56° C | 98% | 1012.7 hPa | 0 mm | - | - | - |
| 1777781887 | 10.56° C | 98% | 1012.7 hPa | 0 mm | - | - | - |
| 1777780987 | 10.56° C | 98% | 1012.9 hPa | 0 mm | - | - | - |
| 1777780088 | 11.11° C | 98% | 1012.9 hPa | 0 mm | - | - | - |
| 1777777386 | 11.11° C | 98% | 1013.1 hPa | 0 mm | - | - | - |
| 1777776488 | 11.11° C | 98% | 1013.1 hPa | 0 mm | - | - | - |
| 1777773788 | 11.67° C | 98% | 1013.4 hPa | 0 mm | - | - | - |
* Rain latest hour (hover to see other rain measurements)
** Current wind speed in m/s (hover to see current wind gust speed)